TimeCDT,TemperatureF,Dew PointF,Humidity,Sea Level PressureIn,VisibilityMPH,Wind Direction,Wind SpeedMPH,Gust SpeedMPH,PrecipitationIn,Events,Conditions,WindDirDegrees,DateUTC
12:15 AM,37.4,21.2,52,29.95,10.0,South,8.1,-,N/A,,Clear,180,2012-10-08 05:15:00
12:35 AM,37.4,21.2,52,29.94,10.0,South,8.1,-,N/A,,Clear,180,2012-10-08 05:35:00
12:55 AM,37.4,21.2,52,29.94,10.0,South,8.1,-,N/A,,Clear,190,2012-10-08 05:55:00
1:15 AM,37.4,21.2,52,29.93,10.0,South,10.4,-,N/A,,Clear,180,2012-10-08 06:15:00
1:35 AM,37.4,21.2,52,29.93,10.0,South,10.4,-,N/A,,Clear,180,2012-10-08 06:35:00
1:55 AM,37.4,23.0,56,29.92,10.0,South,12.7,-,N/A,,Clear,190,2012-10-08 06:55:00
2:15 AM,37.4,23.0,56,29.92,10.0,South,12.7,-,N/A,,Clear,190,2012-10-08 07:15:00
2:35 AM,37.4,23.0,56,29.91,10.0,South,13.8,-,N/A,,Mostly Cloudy,190,2012-10-08 07:35:00
2:55 AM,37.4,23.0,56,29.90,10.0,South,11.5,17.3,N/A,,Overcast,190,2012-10-08 07:55:00
3:15 AM,37.4,23.0,56,29.90,10.0,South,10.4,-,N/A,,Scattered Clouds,190,2012-10-08 08:15:00
3:35 AM,37.4,23.0,56,29.89,10.0,SSW,11.5,-,N/A,,Clear,200,2012-10-08 08:35:00
3:55 AM,37.4,24.8,60,29.89,10.0,SSW,9.2,-,N/A,,Scattered Clouds,200,2012-10-08 08:55:00
4:15 AM,37.4,24.8,60,29.89,10.0,SSW,9.2,-,N/A,,Scattered Clouds,200,2012-10-08 09:15:00
4:35 AM,37.4,26.6,65,29.89,10.0,SSW,9.2,-,N/A,,Clear,200,2012-10-08 09:35:00
4:55 AM,37.4,26.6,65,29.88,10.0,SSW,6.9,-,N/A,,Clear,200,2012-10-08 09:55:00
5:15 AM,37.4,26.6,65,29.88,10.0,South,6.9,-,N/A,,Clear,190,2012-10-08 10:15:00
5:35 AM,35.6,26.6,70,29.88,10.0,SSW,6.9,-,N/A,,Clear,200,2012-10-08 10:35:00
5:55 AM,35.6,28.4,75,29.88,10.0,SSW,6.9,-,N/A,,Clear,200,2012-10-08 10:55:00
6:15 AM,37.4,28.4,70,29.88,10.0,SSW,5.8,-,N/A,,Scattered Clouds,200,2012-10-08 11:15:00
6:35 AM,35.6,28.4,75,29.87,10.0,SSW,5.8,-,N/A,,Scattered Clouds,200,2012-10-08 11:35:00
6:55 AM,37.4,28.4,70,29.87,10.0,South,8.1,-,N/A,,Mostly Cloudy,190,2012-10-08 11:55:00
7:15 AM,37.4,30.2,75,29.87,10.0,SSW,9.2,-,N/A,,Mostly Cloudy,200,2012-10-08 12:15:00
7:35 AM,37.4,30.2,75,29.86,10.0,SSW,10.4,16.1,N/A,,Overcast,200,2012-10-08 12:35:00
7:55 AM,39.2,30.2,70,29.86,10.0,SSW,6.9,-,N/A,,Overcast,210,2012-10-08 12:55:00
8:15 AM,41.0,30.2,65,29.86,10.0,SSW,10.4,16.1,N/A,,Overcast,200,2012-10-08 13:15:00
8:35 AM,41.0,30.2,65,29.86,10.0,SSW,11.5,18.4,N/A,,Overcast,200,2012-10-08 13:35:00
8:55 AM,41.0,30.2,65,29.85,10.0,SSW,13.8,18.4,N/A,,Scattered Clouds,200,2012-10-08 13:55:00
9:15 AM,42.8,30.2,61,29.84,10.0,SSW,16.1,24.2,N/A,,Scattered Clouds,210,2012-10-08 14:15:00
9:55 AM,44.6,30.2,57,29.84,10.0,SSW,16.1,23.0,N/A,,Mostly Cloudy,210,2012-10-08 14:55:00
10:15 AM,46.4,30.2,53,29.84,10.0,SSW,16.1,19.6,N/A,,Scattered Clouds,210,2012-10-08 15:15:00
10:35 AM,46.4,30.2,53,29.84,10.0,SSW,13.8,-,N/A,,Scattered Clouds,200,2012-10-08 15:35:00
10:55 AM,50.0,30.2,47,29.83,10.0,SSW,16.1,20.7,N/A,,Overcast,200,2012-10-08 15:55:00
11:15 AM,51.8,30.2,44,29.82,10.0,SSW,17.3,-,N/A,,Overcast,200,2012-10-08 16:15:00
11:35 AM,53.6,30.2,41,29.81,10.0,SSW,16.1,24.2,N/A,,Mostly Cloudy,200,2012-10-08 16:35:00
11:55 AM,55.4,28.4,36,29.81,10.0,SSW,18.4,21.9,N/A,,Mostly Cloudy,200,2012-10-08 16:55:00
12:15 PM,55.4,28.4,36,29.80,10.0,SSW,18.4,-,N/A,,Overcast,200,2012-10-08 17:15:00
12:35 PM,59.0,28.4,31,29.79,10.0,South,20.7,25.3,N/A,,Overcast,190,2012-10-08 17:35:00
12:55 PM,60.8,28.4,29,29.77,10.0,South,23.0,31.1,N/A,,Scattered Clouds,190,2012-10-08 17:55:00
1:15 PM,62.6,26.6,26,29.76,10.0,SSW,23.0,29.9,N/A,,Clear,210,2012-10-08 18:15:00
1:35 PM,62.6,24.8,24,29.75,10.0,SSW,21.9,29.9,N/A,,Clear,210,2012-10-08 18:35:00
1:55 PM,66.2,23.0,19,29.74,10.0,SSW,20.7,31.1,N/A,,Clear,210,2012-10-08 18:55:00
2:15 PM,66.2,21.2,18,29.72,10.0,SW,25.3,36.8,N/A,,Clear,220,2012-10-08 19:15:00
2:35 PM,68.0,19.4,16,29.71,10.0,SW,25.3,36.8,N/A,,Clear,220,2012-10-08 19:35:00
3:15 PM,64.4,19.4,18,29.70,10.0,SSW,23.0,29.9,N/A,,Scattered Clouds,210,2012-10-08 20:15:00
3:35 PM,64.4,21.2,19,29.70,10.0,SSW,20.7,31.1,N/A,,Scattered Clouds,210,2012-10-08 20:35:00
3:55 PM,64.4,21.2,19,29.71,10.0,SSW,23.0,33.4,N/A,,Mostly Cloudy,210,2012-10-08 20:55:00
4:15 PM,64.4,23.0,21,29.70,7.0,SSW,26.5,35.7,N/A,,Mostly Cloudy,210,2012-10-08 21:15:00
4:35 PM,64.4,23.0,21,29.70,10.0,SSW,25.3,35.7,N/A,,Scattered Clouds,210,2012-10-08 21:35:00
4:55 PM,64.4,21.2,19,29.70,10.0,SW,23.0,31.1,N/A,,Clear,220,2012-10-08 21:55:00
5:15 PM,64.4,21.2,19,29.70,10.0,SW,23.0,31.1,N/A,,Clear,220,2012-10-08 22:15:00
5:35 PM,64.4,21.2,19,29.70,10.0,SSW,23.0,32.2,N/A,,Clear,210,2012-10-08 22:35:00
5:55 PM,62.6,23.0,22,29.70,10.0,SSW,18.4,28.8,N/A,,Clear,210,2012-10-08 22:55:00
6:15 PM,62.6,23.0,22,29.70,10.0,SSW,18.4,27.6,N/A,,Clear,210,2012-10-08 23:15:00
6:35 PM,62.6,23.0,22,29.70,10.0,SSW,18.4,24.2,N/A,,Clear,200,2012-10-08 23:35:00
6:55 PM,60.8,24.8,25,29.71,10.0,SSW,15.0,-,N/A,,Scattered Clouds,200,2012-10-08 23:55:00
7:35 PM,60.8,24.8,25,29.72,10.0,SSW,16.1,19.6,N/A,,Clear,210,2012-10-09 00:35:00
7:55 PM,59.0,24.8,27,29.72,10.0,SSW,13.8,18.4,N/A,,Scattered Clouds,200,2012-10-09 00:55:00
8:15 PM,59.0,24.8,27,29.72,10.0,SSW,12.7,18.4,N/A,,Mostly Cloudy,210,2012-10-09 01:15:00
8:55 PM,59.0,26.6,29,29.74,10.0,SW,12.7,-,N/A,,Overcast,230,2012-10-09 01:55:00
9:15 PM,59.0,26.6,29,29.76,10.0,WSW,10.4,-,N/A,,Overcast,240,2012-10-09 02:15:00
9:35 PM,59.0,26.6,29,29.77,10.0,WSW,6.9,-,N/A,,Overcast,250,2012-10-09 02:35:00
9:55 PM,57.2,30.2,36,29.78,10.0,West,9.2,-,N/A,Rain,Rain,270,2012-10-09 02:55:00
10:15 PM,51.8,41.0,67,29.79,10.0,WNW,6.9,-,N/A,,Drizzle,290,2012-10-09 03:15:00
10:35 PM,53.6,42.8,67,29.79,10.0,NW,9.2,-,N/A,Rain,Light Rain,310,2012-10-09 03:35:00
10:55 PM,51.8,44.6,76,29.82,10.0,WNW,11.5,-,N/A,,Drizzle,290,2012-10-09 03:55:00
11:35 PM,51.8,44.6,76,29.82,10.0,WNW,6.9,-,0.04,Rain,Light Rain,300,2012-10-09 04:35:00
11:55 PM,50.0,44.6,82,29.82,10.0,WNW,5.8,-,0.05,Rain,Light Rain,300,2012-10-09 04:55:00